This is the latest recevied weather packets stored in our database for station/object OZ0AJ-13. If no packets are shown the sender has not sent any weather packets the latest 10 day(s).
| Time | Temp. | Humidity | Pressure | Rain* | Wind** | Luminosity | Snow |
|---|---|---|---|---|---|---|---|
| 1778064928 | 12.78° C | 54% | 1011.4 hPa | 0 mm | - | - | - |
| 1778064324 | 12.22° C | 55% | 1011.5 hPa | 0 mm | - | - | - |
| 1778063719 | 12.22° C | 57% | 1011.5 hPa | 0 mm | - | - | - |
| 1778063134 | 12.22° C | 59% | 1011.7 hPa | 0 mm | - | - | - |
| 1778062530 | 11.67° C | 60% | 1011.7 hPa | 0 mm | - | - | - |
| 1778061926 | 11.67° C | 60% | 1011.6 hPa | 0 mm | - | - | - |
| 1778061321 | 11.67° C | 59% | 1011.7 hPa | 0 mm | - | - | - |
| 1778060717 | 11.67° C | 62% | 1011.8 hPa | 0 mm | - | - | - |
| 1778060133 | 11.67° C | 61% | 1011.8 hPa | 0 mm | - | - | - |
| 1778059529 | 11.11° C | 61% | 1011.6 hPa | 0 mm | - | - | - |
| 1778058925 | 11.11° C | 61% | 1011.9 hPa | 0 mm | - | - | - |
| 1778058321 | 11.11° C | 63% | 1011.9 hPa | 0 mm | - | - | - |
| 1778057716 | 10.56° C | 63% | 1011.8 hPa | 0 mm | - | - | - |
| 1778057132 | 10.56° C | 64% | 1011.9 hPa | 0 mm | - | - | - |
| 1778056528 | 10.56° C | 64% | 1011.8 hPa | 0 mm | - | - | - |
| 1778055924 | 10.56° C | 65% | 1011.8 hPa | 0 mm | - | - | - |
| 1778055320 | 10.56° C | 64% | 1011.7 hPa | 0 mm | - | - | - |
| 1778054716 | 10° C | 65% | 1011.7 hPa | 0 mm | - | - | - |
| 1778054131 | 10° C | 67% | 1011.7 hPa | 0 mm | - | - | - |
| 1778053527 | 9.44° C | 68% | 1011.7 hPa | 0 mm | - | - | - |
| 1778052923 | 8.89° C | 69% | 1011.8 hPa | 0 mm | - | - | - |
| 1778052319 | 8.89° C | 71% | 1011.7 hPa | 0 mm | - | - | - |
| 1778051735 | 8.33° C | 71% | 1011.6 hPa | 0 mm | - | - | - |
| 1778051131 | 8.33° C | 72% | 1011.7 hPa | 0 mm | - | - | - |
| 1778050526 | 7.78° C | 73% | 1011.7 hPa | 0 mm | - | - | - |
* Rain latest hour (hover to see other rain measurements)
** Current wind speed in m/s (hover to see current wind gust speed)